Theta_e
306 306 306 306 306 306 307 308 308 304 307 306 306 306 306 308 304 304 300 297 291 288 287 287 286 286 287 288 287 287 286 286 285 284 284 283 282 280 279 277 277 278 279 280
296 307 308 308 306 306 307 308 307 307 307 306 306 305 310 307 304 303 301 298 293 290 288 288 288 286 285 287 287 288 287 286 285 284 283 282 281 280 278 277 277 277 277 278
307 308 309 308 307 308 308 307 307 308 307 306 306 310 310 306 306 304 300 295 293 291 289 288 288 286 287 287 287 286 286 286 284 283 282 282 281 279 279 278 277 277 277 278
306 307 306 304 306 307 307 307 306 307 311 310 309 308 309 307 303 301 298 295 293 291 289 287 286 289 289 289 288 286 286 285 284 283 282 282 281 280 280 279 278 278 278 278
305 307 306 306 305 307 307 307 309 309 311 310 307 305 305 304 301 300 298 294 292 291 289 287 289 289 288 287 286 285 285 284 284 283 283 282 282 281 281 280 279 278 277 278
304 310 309 306 308 310 310 308 309 309 310 308 306 305 301 302 297 295 295 293 291 290 289 289 289 288 287 285 285 285 284 284 284 283 283 282 282 282 281 281 279 278 277 276
307 309 309 307 306 308 308 306 308 308 308 306 305 303 301 295 293 293 292 290 290 289 288 288 288 287 286 285 285 284 284 283 283 282 282 282 282 282 282 282 279 277 277 275
309 311 311 307 310 309 306 308 308 307 307 306 302 299 297 293 291 291 290 290 289 288 288 288 288 287 286 285 284 284 283 283 282 282 282 282 282 282 282 282 279 278 278 276
310 308 306 309 309 310 309 309 307 307 305 302 300 298 295 293 292 291 290 290 289 289 288 287 287 287 286 285 284 284 283 282 282 282 283 283 283 282 281 282 281 279 278 276
307 309 310 308 309 308 307 306 306 305 303 301 301 298 296 294 293 292 290 290 289 289 288 287 287 287 288 285 284 284 283 282 283 283 282 282 282 282 281 281 280 278 277 275
309 309 309 308 309 309 309 305 305 303 302 301 299 298 296 295 293 292 290 290 289 289 288 288 288 288 287 286 285 284 284 283 283 282 282 281 281 278 279 279 277 278 277 274
311 309 310 309 309 308 307 304 303 303 301 300 299 297 296 295 292 291 290 290 289 289 289 289 288 288 287 286 285 285 284 284 283 282 281 281 280 276 276 277 276 275 275 275
309 309 309 308 306 307 306 303 302 301 301 299 297 297 296 295 292 291 290 289 289 289 289 288 288 287 287 286 286 285 285 284 283 282 281 280 279 278 277 276 276 276 276 275
306 306 305 304 304 304 303 302 302 300 300 299 297 297 296 294 292 291 290 290 289 289 289 288 287 287 286 286 286 285 285 284 283 282 282 281 280 279 278 278 278 278 277 276
303 304 303 302 301 300 300 299 299 298 297 296 297 296 295 291 290 290 290 290 290 289 288 287 287 286 286 286 285 285 284 283 283 283 282 281 280 280 279 279 278 278 278 278
305 304 303 303 302 300 300 298 298 296 295 294 293 293 293 292 291 290 290 290 288 287 287 287 287 286 286 285 285 284 284 283 282 282 281 281 280 279 279 279 278 278 279 279
305 303 303 302 301 300 300 298 297 296 294 293 292 292 291 290 289 288 288 288 289 288 287 287 286 286 285 285 285 284 283 282 282 282 281 280 279 279 279 279 279 278 278 277
304 304 303 302 300 298 298 297 295 294 293 294 292 291 289 288 287 286 286 287 286 286 286 286 286 285 284 284 283 282 282 282 282 281 281 280 279 280 279 279 278 278 276 274
301 302 301 299 298 297 296 294 294 294 294 293 291 289 289 288 287 286 286 286 285 285 284 284 284 283 283 282 282 282 282 282 281 280 280 280 280 279 278 278 277 276 275 273
298 298 297 296 296 295 292 292 292 291 291 291 289 287 285 285 285 285 285 284 285 285 284 283 283 282 281 281 281 282 282 282 281 279 280 280 278 278 278 276 275 274 273 272
293 292 291 291 289 291 292 292 291 288 289 290 289 286 285 284 284 284 283 283 283 283 283 282 281 280 279 279 280 281 281 281 280 279 279 278 278 277 275 274 273 272 271 270
290 288 287 288 288 287 289 290 290 288 288 288 287 286 284 283 283 283 284 284 284 283 283 281 279 278 278 277 279 280 280 279 278 278 278 277 276 275 273 272 271 270 269 268
289 288 287 287 287 287 287 288 288 288 287 287 286 285 285 284 284 283 283 284 283 282 281 278 278 278 277 277 279 279 279 278 278 277 277 276 274 273 272 270 269 268 266 265
289 288 287 287 287 286 285 286 287 287 287 287 286 286 285 283 283 283 284 284 283 280 278 278 278 277 276 278 279 278 278 278 277 276 274 273 272 270 269 268 266 265 264 263
288 287 287 287 286 286 286 285 285 285 285 285 285 285 284 283 284 284 283 282 279 279 279 278 277 277 278 278 278 278 277 276 275 273 272 271 269 268 267 266 265 264 263 262
288 288 287 289 288 287 286 285 284 284 284 284 284 285 284 284 283 282 281 279 279 278 277 277 277 278 278 277 276 275 274 273 272 270 269 268 267 266 265 264 263 262 261 261
289 289 289 289 288 287 286 285 284 283 284 283 282 283 284 282 281 280 279 278 278 277 277 276 277 276 276 275 274 273 271 270 269 268 267 265 264 264 263 262 261 261 260 259
Wind_Speed
5 5 6 10 14 14 9 8 7 10 11 10 14 14 11 7 10 14 14 14 11 10 12 17 16 14 15 14 14 13 12 11 13 15 16 14 13 12 13 17 19 20 23 24
5 6 9 14 11 14 17 14 15 17 16 16 14 8 6 10 14 14 16 14 12 11 16 16 16 15 18 18 16 14 14 13 15 16 14 13 12 13 14 17 21 23 23 23
6 3 8 9 17 15 10 10 9 11 14 8 5 7 9 9 11 12 13 14 13 13 19 19 19 22 21 20 19 17 17 16 18 17 16 14 13 15 19 19 20 22 22 21
2 4 7 8 5 8 11 13 13 10 5 4 3 3 1 5 8 11 14 14 12 16 19 21 24 24 21 21 21 19 20 20 19 18 16 14 13 14 15 17 20 22 21 19
2 6 9 13 9 2 5 7 7 7 5 4 5 2 4 2 5 10 12 16 19 25 25 25 26 26 26 27 26 24 22 20 19 18 17 15 13 13 13 14 16 16 18 20
1 4 5 5 4 5 2 5 5 6 7 6 4 2 4 4 5 8 15 21 21 25 26 27 29 28 28 28 26 23 21 19 16 14 15 14 13 12 12 12 14 14 16 17
10 7 7 9 10 2 3 6 5 6 7 7 5 4 3 8 6 14 19 21 25 27 26 29 30 30 28 26 22 19 17 16 16 16 16 15 15 13 11 11 13 13 15 17
6 5 9 4 1 7 5 3 3 3 6 5 5 6 7 8 10 13 17 21 23 23 23 29 29 30 26 23 20 19 18 17 16 15 14 12 11 10 8 10 13 10 10 14
3 5 2 2 3 3 4 2 2 5 4 8 10 5 9 10 11 13 19 19 20 21 22 25 29 27 24 21 22 20 19 18 16 14 13 10 11 10 12 14 15 8 5 9
2 4 5 7 7 6 4 6 4 5 10 10 9 11 9 10 10 11 16 18 19 21 20 21 28 25 22 23 24 22 20 18 16 15 13 11 10 9 11 10 8 6 6 7
4 8 8 10 10 8 5 3 6 7 8 9 11 10 11 9 11 15 17 18 20 20 20 23 27 25 24 24 25 23 21 20 18 17 16 14 9 7 8 6 3 6 7 7
3 7 5 10 12 3 6 6 9 8 7 8 10 11 9 7 15 18 17 19 20 22 24 25 25 25 25 25 26 24 23 21 20 18 19 16 13 11 8 6 7 7 6 6
4 5 11 12 8 7 7 7 7 8 10 12 9 14 15 8 17 20 20 23 22 25 26 23 22 24 27 26 26 25 24 22 21 21 20 17 15 14 13 8 6 5 4 4
6 4 5 6 4 4 7 7 10 9 14 16 16 15 17 13 15 20 20 25 26 27 25 23 24 25 24 24 23 21 22 22 22 19 19 19 17 14 12 11 9 7 8 8
11 11 7 5 6 5 6 8 8 7 6 7 16 15 17 13 15 19 24 25 26 26 24 25 25 25 23 21 19 16 19 19 18 18 16 16 14 13 11 9 8 6 6 8
5 9 7 8 8 7 7 7 8 5 6 5 10 15 18 21 22 23 23 25 25 21 25 25 24 22 21 20 18 15 13 17 18 15 14 12 10 10 10 9 8 7 6 5
7 6 5 5 8 6 6 6 7 7 6 9 13 21 23 22 21 19 20 23 24 25 24 24 22 20 19 17 15 14 15 15 13 11 10 8 9 9 9 10 10 8 7 7
4 5 9 10 8 7 7 8 11 13 8 17 21 24 24 21 16 20 20 20 21 19 20 20 19 19 16 13 11 12 12 13 11 10 9 9 10 10 10 9 8 10 10 9
4 5 6 7 11 9 8 8 12 16 19 21 23 20 23 24 25 24 23 23 21 19 17 19 17 15 13 11 11 12 13 13 11 11 10 9 11 9 7 7 9 10 12 10
6 12 17 14 15 18 11 15 19 18 18 20 20 20 19 21 24 24 22 20 18 11 18 17 14 13 12 14 13 10 15 12 12 10 9 10 8 7 8 11 11 11 11 9
7 9 11 13 12 16 20 20 21 18 17 20 22 21 22 22 22 21 17 14 12 9 13 12 12 12 11 12 12 11 13 13 13 13 12 9 9 11 12 11 10 9 8 6
5 6 10 14 14 14 13 15 17 18 17 15 17 20 21 19 18 15 11 10 12 12 13 12 11 10 9 11 11 11 12 13 13 11 10 11 13 14 12 9 7 5 4 3
9 9 12 12 13 14 14 14 16 17 17 17 19 20 20 21 19 15 8 9 11 12 12 12 11 9 9 13 12 11 10 10 10 9 10 11 10 8 6 5 4 4 4 4
10 12 12 13 18 16 10 11 12 12 13 13 13 13 15 17 13 7 3 9 12 13 14 14 12 11 11 12 14 12 12 11 10 10 9 7 5 4 4 3 3 3 4 4
10 11 16 16 11 9 15 15 14 14 13 13 11 9 9 12 5 9 11 13 14 14 14 14 15 14 13 14 12 12 13 11 9 7 6 5 4 3 3 4 4 5 5 5
11 11 14 13 13 16 16 16 13 15 17 14 11 12 13 12 10 14 14 15 16 18 18 15 14 13 14 15 14 12 9 8 6 5 5 4 4 4 4 4 4 4 4 5
12 13 12 10 11 14 17 17 17 17 17 16 13 14 14 15 15 16 17 19 19 17 15 15 15 16 15 12 10 8 7 6 5 4 4 3 3 3 3 4 4 5 6 7
Wind_Direction
253 240 264 271 284 297 268 227 228 276 258 271 265 262 260 233 149 169 178 179 168 164 163 170 172 176 178 175 174 175 154 131 124 123 117 108 96 87 78 67 64 67 65 63
292 274 272 270 258 252 265 273 258 265 267 257 268 254 184 176 171 183 186 173 167 171 169 177 177 177 177 180 180 170 167 153 135 131 121 112 98 86 84 78 69 69 61 58
273 246 313 284 241 241 247 237 242 260 260 278 247 199 208 196 186 177 174 167 167 173 175 179 182 179 180 176 165 160 155 146 143 134 126 117 105 98 84 79 75 70 67 59
244 34 268 245 261 236 239 248 246 249 213 219 219 315 313 178 168 162 166 165 163 167 171 179 182 179 184 186 182 165 150 144 142 140 133 126 115 107 96 83 78 74 73 67
205 224 294 293 282 201 217 263 212 196 189 220 114 106 14 105 151 165 162 158 164 172 173 175 175 171 163 160 158 152 150 150 149 146 140 137 131 120 109 96 83 78 70 69
171 241 248 246 233 246 154 273 216 172 187 162 125 131 244 162 111 113 138 150 155 166 167 171 169 167 161 156 156 156 157 156 157 158 150 141 137 136 128 109 97 87 74 67
221 239 270 245 264 222 166 244 196 169 171 163 184 207 156 114 83 133 143 144 152 156 158 165 166 167 158 162 164 166 167 163 161 157 148 140 134 129 127 131 114 97 78 68
211 231 255 207 54 178 223 291 208 167 167 150 123 121 120 118 127 130 134 141 148 150 157 164 169 168 164 169 169 169 165 162 162 161 157 158 153 150 138 153 139 115 81 64
229 221 268 326 302 277 261 282 276 152 120 136 139 145 144 144 143 145 146 150 154 155 157 165 173 177 172 175 173 172 172 171 168 167 166 161 171 149 138 138 152 142 100 64
355 307 322 307 285 254 306 266 193 146 145 153 148 149 150 147 150 149 153 158 161 159 161 161 179 183 184 177 177 176 177 178 176 173 171 167 163 163 160 161 158 150 126 82
252 263 270 268 256 220 241 202 117 136 154 152 146 159 161 158 155 160 162 163 166 168 174 176 184 187 182 179 180 183 185 184 183 179 177 170 156 147 163 165 167 157 128 108
244 289 280 287 260 220 203 184 162 151 140 156 156 159 166 163 158 164 167 166 168 175 182 185 187 188 184 184 185 186 189 191 190 189 178 177 169 149 137 126 124 132 130 108
223 202 216 246 272 221 201 182 164 155 157 157 158 158 168 158 161 170 165 167 170 177 186 182 182 184 186 189 191 193 194 194 194 193 192 186 180 176 165 172 173 179 181 176
239 221 230 217 236 178 140 148 141 138 149 156 159 164 165 155 163 163 164 176 178 180 180 177 176 178 183 189 194 200 203 201 199 203 207 204 203 200 195 190 196 212 225 230
244 218 224 195 134 121 122 124 117 126 125 130 156 158 161 145 153 165 171 172 175 177 178 176 175 176 181 188 195 192 195 203 200 196 199 197 193 194 198 198 209 231 259 247
278 208 185 162 160 150 136 122 122 126 122 116 129 144 155 161 157 154 158 164 159 164 174 175 174 178 182 187 187 186 193 187 186 185 181 187 192 190 193 214 237 255 255 246
198 188 163 158 160 162 154 137 139 138 124 129 141 141 138 138 140 144 156 168 171 169 173 176 175 177 183 193 197 191 184 185 195 197 199 204 207 200 216 233 238 206 186 175
161 157 164 181 164 137 127 130 133 137 139 148 149 145 139 140 144 148 149 152 153 159 174 179 180 181 187 196 205 199 193 189 191 206 203 200 205 220 227 213 207 189 172 156
339 151 120 125 131 125 124 123 135 142 145 148 152 151 156 156 155 153 154 154 155 157 168 175 179 185 191 194 196 194 187 190 197 202 204 204 202 199 207 222 191 179 174 176
52 88 98 92 104 117 110 132 139 140 148 149 146 144 145 156 160 158 163 161 170 173 174 178 187 194 194 191 195 193 193 199 193 194 196 188 193 204 195 178 167 166 172 174
86 87 94 102 95 120 135 144 142 140 148 153 155 157 158 159 164 161 154 152 171 172 181 187 193 192 190 190 188 178 177 187 193 188 181 183 178 173 170 167 170 174 175 180
105 106 105 109 108 106 128 140 142 142 146 147 148 148 149 154 165 168 176 180 177 179 183 185 180 178 182 183 179 173 166 164 171 180 181 182 175 168 170 174 177 188 205 220
102 115 121 122 124 125 128 137 147 151 151 156 159 161 165 171 175 163 152 178 184 177 181 173 163 161 165 165 160 166 172 178 178 183 181 177 175 178 188 203 218 241 244 253
120 124 129 135 134 127 115 134 143 150 154 159 166 167 167 164 173 178 174 180 177 174 171 167 167 164 160 166 168 176 179 184 180 174 176 188 199 207 220 242 246 239 256 265
130 134 141 140 130 125 139 144 139 139 139 141 151 164 174 177 183 182 181 168 166 163 162 161 164 167 171 175 183 182 174 173 180 190 198 209 216 239 242 241 250 260 263 257
149 153 163 163 160 157 154 153 142 151 147 135 138 151 166 175 157 154 160 162 162 159 157 162 170 174 176 168 162 163 170 177 187 197 214 230 239 242 247 258 269 259 256 272
150 154 150 139 160 169 168 166 156 163 168 157 148 154 158 159 160 158 156 156 157 161 162 163 167 166 160 159 161 167 173 180 195 214 224 234 237 239 249 271 276 268 276 282